China Weather Fengxian today hourly
Home / China / Fengxian / Fengxian Hour By Hour Weather - 24hr View

48 Hour View

Time Temp. Wind Dir. Humidity Wind Spd. Precip.
2020-07-20 20:00pm 24°C NE 93% 11km/h 47%
2020-07-20 21:00pm 24°C NE 94% 5km/h 55%
2020-07-20 22:00pm 25°C NE 94% 2km/h 55%
2020-07-20 23:00pm 25°C NE 95% 6km/h 55%
2020-07-21 00:00pm 25°C NE 95% 7km/h 49%
2020-07-21 01:00pm 25°C NE 96% 2km/h 20%
2020-07-21 02:00pm 25°C NE 97% 8km/h 20%
2020-07-21 03:00pm 25°C NE 97% 7km/h 20%
2020-07-21 04:00pm 24°C NE 97% 5km/h 20%
2020-07-21 05:00pm 24°C NE 97% 3km/h 20%
2020-07-21 06:00pm 25°C NE 96% 1km/h 25%
2020-07-21 07:00pm 26°C NE 95% 10km/h 51%
2020-07-21 08:00pm 26°C NE 93% 4km/h 47%
2020-07-21 09:00pm 27°C E 89% 8km/h 49%
2020-07-21 10:00pm 28°C E 86% 11km/h 55%
2020-07-21 11:00pm 28°C SE 82% 5km/h 55%
2020-07-21 12:00pm 29°C SE 82% 2km/h 49%
2020-07-21 13:00pm 29°C SE 82% 10km/h 16%
2020-07-21 14:00pm 29°C SE 82% 6km/h 16%
2020-07-21 15:00pm 29°C SE 83% 7km/h 16%
2020-07-21 16:00pm 29°C SE 85% 4km/h 16%
2020-07-21 17:00pm 29°C SE 86% 3km/h 16%
2020-07-21 18:00pm 28°C SE 87% 6km/h 12%
2020-07-21 19:00pm 28°C SE 87% 13km/h 4%
2020-07-21 19:00pm 28°C S 93% 11km/h 6%
2020-07-21 20:00pm 27°C SE 93% 1km/h 6%
2020-07-21 21:00pm 27°C SE 95% 11km/h 6%
2020-07-21 22:00pm 27°C SE 96% 9km/h 6%
2020-07-21 23:00pm 27°C SE 97% 3km/h 6%
2020-07-22 00:00pm 26°C SE 97% 5km/h 6%
2020-07-22 01:00pm 26°C SE 97% 7km/h 4%
2020-07-22 02:00pm 26°C SE 97% 1km/h 4%
2020-07-22 03:00pm 26°C SE 96% 6km/h 4%
2020-07-22 04:00pm 26°C SE 96% 3km/h 4%
2020-07-22 05:00pm 26°C SE 96% 11km/h 4%
2020-07-22 06:00pm 27°C SE 93% 4km/h 3%
2020-07-22 07:00pm 28°C SE 91% 9km/h 1%
2020-07-22 08:00pm 29°C SE 88% 7km/h 1%
2020-07-22 09:00pm 29°C SE 85% 9km/h 1%
2020-07-22 10:00pm 30°C S 82% 9km/h 1%
2020-07-22 11:00pm 31°C S 79% 2km/h 1%
2020-07-22 12:00pm 31°C S 78% 5km/h 1%
2020-07-22 13:00pm 31°C S 77% 7km/h 0%
2020-07-22 14:00pm 31°C S 76% 8km/h 0%
2020-07-22 15:00pm 31°C S 78% 23km/h 0%
2020-07-22 16:00pm 31°C S 81% 12km/h 0%
2020-07-22 17:00pm 31°C S 83% 19km/h 0%
2020-07-22 18:00pm 31°C S 84% 19km/h 0%

More Local Information

Hourly Weather Nearby

Bookmark and Share

Become A Member